Zurück zum Katalog

STARLINK-31931

AktivKommunikationVLEO
NORAD 59864·PAYLOAD·🇺🇸 United States

Gestartet May 24, 2024 von Cape Canaveral Space Force Station

Loading…

Nächste Überflüge (nächste 24 Stunden)

TLE

AktuellSource: CelesTrak SupGP

Epoche: Sep 14, 2026, 20:55 UTC

1 59864C 24098G   26257.87201389 -.00007087  00000+0 -25671-3 0  2579
2 59864  43.0004 289.9220 0001315 269.8255 150.6021 15.27579081    15

Verfolge STARLINK-31931 in Echtzeit mit AllMySat

Download on the App Store